FW0051 Weather Reports


Display with metric or nautical units.
time (UTC)temp
F
wind
direction
speed
MPH
gust
MPH
rain 1hr
in
rain 24hr
in
rain mn
in
humidity
%
barometer
mb
20260831074519 58 212 7.0 12.0 0.00 0.00 0.00 86 1023.3
20260831073019 57 206 6.0 8.0 0.00 0.00 0.00 88 1023.3
20260831071518 56 191 5.0 8.0 0.00 0.00 0.00 88 1023.2
20260831070018 57 193 6.0 8.0 0.00 0.00 0.00 85 1023.1
20260831064517 57 206 7.0 10.0 0.00 0.00 0.00 83 1023.1
20260831063018 57 207 7.0 11.0 0.00 0.00 0.00 77 1023.0
20260831061517 57 212 5.0 7.0 0.00 0.00 0.00 67 1022.8
20260831060019 58 212 3.0 4.0 0.00 0.00 0.00 68 1022.9
20260831054518 60 213 0.0 3.0 0.00 0.00 0.00 45 1022.5
20260831053018 60 212 0.0 2.0 0.00 0.00 0.00 45 1022.4
20260831051517 60 213 1.0 4.0 0.00 0.00 0.00 47 1022.2
20260831050018 59 213 4.0 5.0 0.00 0.00 0.00 56 1022.3
20260831044517 58 211 5.0 7.0 0.00 0.00 0.00 63 1022.3
20260831043017 57 209 5.0 7.0 0.00 0.00 0.00 69 1022.2
20260831040017 55 210 7.0 9.0 0.00 0.00 0.00 86 1022.6
20260831034516 56 215 6.0 8.0 0.00 0.00 0.00 83 1022.6
20260831033016 55 210 7.0 10.0 0.00 0.00 0.00 85 1022.7
20260831031516 56 206 5.0 6.0 0.00 0.00 0.00 79 1022.8
20260831030017 56 223 5.0 7.0 0.00 0.00 0.00 76 1022.9
20260831023016 56 210 7.0 9.0 0.00 0.00 0.00 83 1023.1
20260831021515 56 199 7.0 10.0 0.00 0.00 0.00 81 1023.1
20260831020016 56 189 6.0 8.0 0.00 0.00 0.00 78 1023.1
20260831011515 57 205 5.0 6.0 0.00 0.00 0.00 85 1023.3
20260831004515 56 197 3.0 5.0 0.00 0.00 0.00 86 1023.4
20260831003016 56 194 4.0 5.0 0.00 0.00 0.00 87 1023.6
20260831001514 57 190 4.0 7.0 0.00 0.00 0.00 86 1023.9
20260831000016 57 182 5.0 7.0 0.00 0.00 0.00 80 1023.6
20260830234514 58 182 5.0 7.0 0.00 0.00 0.00 79 1023.7
20260830233015 58 186 7.0 8.0 0.00 0.00 0.00 79 1023.8
20260830231514 58 175 6.0 7.0 0.00 0.00 0.00 80 1024.0
20260830230015 59 159 6.0 7.0 0.00 0.00 0.00 76 1023.8
20260830224514 59 188 4.0 6.0 0.00 0.00 0.00 75 1023.7
20260830223014 58 181 4.0 5.0 0.00 0.00 0.00 80 1024.0
20260830221514 57 178 2.0 5.0 0.00 0.00 0.00 89 1024.1
20260830220015 57 152 4.0 5.0 0.00 0.00 0.00 88 1024.2
20260830213014 57 141 4.0 5.0 0.00 0.00 0.00 89 1024.1
20260830210014 57 134 7.0 9.0 0.00 0.00 0.00 88 1024.2
20260830204513 58 120 8.0 10.0 0.00 0.00 0.00 88 1024.0
20260830203013 58 126 6.0 8.0 0.00 0.00 0.00 86 1024.0
20260830201513 58 119 3.0 4.0 0.00 0.00 0.00 74 1023.8
20260830200013 58 113 3.0 6.0 0.00 0.00 0.00 84 1023.8
20260830194513 58 116 3.0 4.0 0.00 0.00 0.00 86 1023.9
20260830193019 58 98 3.0 4.0 0.00 0.00 0.00 88 1023.9
20260830191519 58 113 4.0 6.0 0.00 0.00 0.00 88 1023.9
20260830184518 58 122 5.0 7.0 0.00 0.00 0.00 88 1023.9
20260830183019 58 134 4.0 5.0 0.00 0.00 0.00 88 1023.6
20260830181518 58 147 4.0 6.0 0.00 0.00 0.00 89 1023.5
20260830180019 58 149 5.0 7.0 0.00 0.00 0.00 89 1023.4
20260830174518 58 143 7.0 9.0 0.00 0.00 0.00 89 1023.2
20260830171518 59 150 9.0 11.0 0.00 0.00 0.00 89 1023.2
20260830164518 59 144 9.0 12.0 0.00 0.00 0.00 86 1023.4
20260830161517 59 151 11.0 14.0 0.00 0.00 0.00 86 1023.5
20260830160018 60 149 10.0 14.0 0.00 0.00 0.00 85 1023.6
20260830154517 60 152 10.0 14.0 0.00 0.00 0.00 86 1023.6
20260830151516 60 143 14.0 20.0 0.00 0.00 0.00 86 1023.6
20260830150019 60 146 13.0 18.0 0.00 0.00 0.00 86 1023.7
20260830144517 59 137 15.0 19.0 0.00 0.00 0.00 88 1023.4
20260830143016 60 133 15.0 19.0 0.00 0.00 0.00 88 1023.4
20260830141516 59 141 12.0 16.0 0.00 0.00 0.00 88 1023.5
20260830140017 60 139 14.0 20.0 0.00 0.00 0.00 89 1023.6
20260830134516 60 137 15.0 22.0 0.00 0.00 0.00 90 1023.9
20260830133016 60 133 13.0 19.0 0.00 0.00 0.00 89 1024.0
20260830131515 59 125 13.0 18.0 0.00 0.00 0.00 91 1023.8
20260830130018 60 118 12.0 17.0 0.00 0.00 0.00 91 1024.0
20260830123016 60 146 14.0 19.0 0.00 0.00 0.00 90 1024.1
20260830121515 59 119 14.0 18.0 0.00 0.00 0.00 91 1024.0
20260830120016 60 128 12.0 16.0 0.00 0.00 0.00 90 1024.2
20260830114514 59 139 13.0 18.0 0.00 0.00 0.00 91 1024.1
20260830113016 60 137 11.0 15.0 0.00 0.00 0.00 90 1024.0
20260830111515 60 134 8.0 13.0 0.00 0.00 0.00 90 1024.2
20260830110015 61 140 9.0 12.0 0.00 0.00 0.00 88 1024.3
20260830104516 60 138 9.0 15.0 0.00 0.00 0.00 90 1024.2
20260830103014 59 128 8.0 13.0 0.00 0.00 0.00 89 1024.0
20260830100015 60 124 7.0 13.0 0.00 0.00 0.00 87 1024.2
20260830093014 60 128 8.0 12.0 0.00 0.00 0.00 83 1024.2
20260830091514 60 135 7.0 12.0 0.00 0.00 0.00 84 1024.2
20260830090014 60 131 6.0 12.0 0.00 0.00 0.00 83 1024.1
20260830084513 60 149 6.0 11.0 0.00 0.00 0.00 86 1024.3
20260830083013 60 144 5.0 9.0 0.00 0.00 0.00 84 1024.1
20260830081513 59 157 5.0 12.0 0.00 0.00 0.00 85 1024.0
20260830080013 59 132 4.0 8.0 0.00 0.00 0.00 85 1024.0